[ hide orbit diagram ]
For accurate long-term ephemerides, please instead use our Horizons system.This orbit viewer was implemented using two-body methods, and hence should not be used for determining accurate long-term trajectories (over several years or decades) or planetary encounter circumstances.
Orbital Elements at Epoch 2459000.5 (2020-May-31.0) TDB
Reference: JPL 17 (heliocentric ecliptic J2000)
Element | Value | Uncertainty (1-sigma) | Units |
e | .1799457488365747 | 9.9346e-08 | |
a | 2.550439962098013 | 1.7913e-08 | au |
q | 2.091499133255561 | 2.6034e-07 | au |
i | 11.45438862687677 | 6.6758e-06 | deg |
node | 282.6981189432111 | 3.9963e-05 | deg |
peri | 78.15086080651902 | 4.5742e-05 | deg |
M | 46.13999981829323 | 2.097e-05 | deg |
tp | 2458809.823939078720 (2019-Nov-22.32393908) | 8.5823e-05 | TDB |
period | 1487.719596922181 4.07 | 1.5673e-05 4.291e-08 | d yr |
n | .2419810834950175 | 2.5493e-09 | deg/d |
Q | 3.009380790940464 | 2.1136e-08 | au |
|
| | Orbit Determination Parameters
Additional Information
|
[ show covariance matrix ]
Physical Parameter Table
Parameter |
Symbol |
Value |
Units |
Sigma |
Reference |
Notes |
absolute magnitude |
H |
16.1 |
|
n/a |
MPO495173 |
|
|
438524 (2007 TQ) Discovered 2007-Oct-03 by Lowe, A. at Mayhill |
Reference: | Last Updated: 2015-07-06 |
|
|